seed: p2v3s15

Total games: 247


  • Filter by # of Players
  • Filter by Score
  • Filter by Variant



ID # of Players Score Variant Date & Time Players
11304 2 30 Rainbow (6 Suits) 2018-10-02 — 16:21:31 UTC Andrew_UK, scharkbite
20139 2 30 Rainbow (6 Suits) 2019-02-15 — 22:04:55 UTC Feer, zerlick
44044 2 30 Rainbow (6 Suits) 2019-07-01 — 20:30:41 UTC Göttertöter, Sharklah
49972 2 30 Rainbow (6 Suits) 2019-08-11 — 01:08:44 UTC anser, invarse
51351 2 30 Rainbow (6 Suits) 2019-08-22 — 06:03:24 UTC csq, greggythebear
61309 2 30 Rainbow (6 Suits) 2019-10-29 — 03:26:57 UTC fivefives, jwngr
63116 2 30 Rainbow (6 Suits) 2019-11-06 — 02:50:41 UTC bmann, emdog
77836 2 30 Rainbow (6 Suits) 2020-02-04 — 21:59:26 UTC fh_monday, fr
88484 2 30 Rainbow (6 Suits) 2020-03-13 — 14:41:55 UTC Sadret, Zilvarro
89310 2 30 Rainbow (6 Suits) 2020-03-14 — 20:04:41 UTC DoubleDown11, MarkusKahlsen
90542 2 30 Rainbow (6 Suits) 2020-03-17 — 02:48:23 UTC antizoubilamaka, link825
92049 2 30 Rainbow (6 Suits) 2020-03-19 — 18:05:08 UTC hu.mab, Stradguy
95094 2 30 Rainbow (6 Suits) 2020-03-23 — 13:12:57 UTC anto.mazzo, mauro
102175 2 30 Rainbow (6 Suits) 2020-03-30 — 02:35:56 UTC ceciliadevita, pombi
111085 2 30 Rainbow (6 Suits) 2020-04-06 — 02:52:27 UTC bfichera, brami
111786 2 30 Rainbow (6 Suits) 2020-04-06 — 21:16:22 UTC Axineld, rfrank27
115869 2 30 Rainbow (6 Suits) 2020-04-10 — 18:36:07 UTC choonabi, ClandestineClue
118494 2 30 Rainbow (6 Suits) 2020-04-12 — 02:45:34 UTC dewey, liwei
119171 2 30 Rainbow (6 Suits) 2020-04-12 — 16:44:01 UTC Hawlucha, mperera
124408 2 30 Rainbow (6 Suits) 2020-04-16 — 19:59:07 UTC Fedorov, geor1983
127745 2 30 Rainbow (6 Suits) 2020-04-18 — 22:25:16 UTC alanpotato, Roroast
128000 2 30 Rainbow (6 Suits) 2020-04-19 — 00:58:04 UTC benwake, Cornflake62
131912 2 30 Rainbow (6 Suits) 2020-04-21 — 18:23:39 UTC Cristina, saraquarantine
135386 2 30 Rainbow (6 Suits) 2020-04-24 — 05:01:25 UTC Rick, RickIsNotMe
137846 2 30 Rainbow (6 Suits) 2020-04-25 — 17:33:12 UTC DrJellyfish, fractal5
138001 2 30 Rainbow (6 Suits) 2020-04-25 — 19:34:57 UTC opurtell, pfinley
142098 2 30 Rainbow (6 Suits) 2020-04-28 — 11:50:09 UTC Dilshaad, Dimithi
144879 2 30 Rainbow (6 Suits) 2020-04-30 — 14:20:00 UTC Guamo, larki
150991 2 30 Rainbow (6 Suits) 2020-05-04 — 00:58:35 UTC muddy, Olorin
158460 2 30 Rainbow (6 Suits) 2020-05-09 — 11:08:56 UTC callistooooo, newacc
159422 2 30 Rainbow (6 Suits) 2020-05-10 — 00:39:27 UTC Ch1cken, frollo9386
163237 2 30 Rainbow (6 Suits) 2020-05-12 — 17:52:40 UTC annieboboh, penguin69
165174 2 30 Rainbow (6 Suits) 2020-05-14 — 03:44:59 UTC mayala, uclabb
166391 2 30 Rainbow (6 Suits) 2020-05-15 — 02:26:03 UTC Crivens_Temp, eliyahu
171609 2 30 Rainbow (6 Suits) 2020-05-18 — 08:02:01 UTC Fey, smallman
171831 2 30 Rainbow (6 Suits) 2020-05-18 — 18:57:17 UTC bob271, cdmcfarland
172472 2 30 Rainbow (6 Suits) 2020-05-19 — 03:58:35 UTC baozi, moontwist11
173266 2 30 Rainbow (6 Suits) 2020-05-19 — 23:30:39 UTC guga, ohughes
173767 2 30 Rainbow (6 Suits) 2020-05-20 — 04:57:12 UTC TheDaniMan, wshin0104
182267 2 30 Rainbow (6 Suits) 2020-05-26 — 04:22:59 UTC buxtehude11, yee claw
182838 2 30 Rainbow (6 Suits) 2020-05-26 — 19:59:29 UTC Anaïs, Lissange
192758 2 30 Rainbow (6 Suits) 2020-06-03 — 17:23:18 UTC Isa, pixieawa
192902 2 30 Rainbow (6 Suits) 2020-06-03 — 19:37:41 UTC Ewan, Willoughby
197594 2 30 Rainbow (6 Suits) 2020-06-07 — 05:39:35 UTC gaboross, Otyika
198404 2 30 Rainbow (6 Suits) 2020-06-07 — 23:11:25 UTC adik, oldgreg
198925 2 30 Rainbow (6 Suits) 2020-06-08 — 07:51:08 UTC mfl, vmplays
211569 2 30 Rainbow (6 Suits) 2020-06-19 — 09:19:15 UTC JustusR, Yoshi
211714 2 30 Rainbow (6 Suits) 2020-06-19 — 17:37:55 UTC clspencer, sjforion
212114 2 30 Rainbow (6 Suits) 2020-06-19 — 23:55:35 UTC mirza, shhh
217426 2 30 Rainbow (6 Suits) 2020-06-24 — 22:00:30 UTC dramos, glauberdlg
220333 2 30 Rainbow (6 Suits) 2020-06-27 — 05:01:40 UTC meowgli, thelma
223020 2 30 Rainbow (6 Suits) 2020-06-29 — 05:09:04 UTC cipher, monbon
227216 2 30 Rainbow (6 Suits) 2020-07-02 — 23:43:46 UTC danguskhan, jaycanplay
228233 2 30 Rainbow (6 Suits) 2020-07-03 — 20:36:35 UTC jons14, L1
231977 2 30 Rainbow (6 Suits) 2020-07-07 — 03:02:52 UTC budabloom, mindabloom
232846 2 30 Rainbow (6 Suits) 2020-07-08 — 02:38:55 UTC berttus, lopenguin1
238763 2 30 Rainbow (6 Suits) 2020-07-14 — 02:03:23 UTC awhickey, HogsOfWar
240520 2 30 Rainbow (6 Suits) 2020-07-15 — 16:45:46 UTC aewyna, Shinja
244024 2 30 Rainbow (6 Suits) 2020-07-18 — 18:55:32 UTC huskie1, monkey1212
248672 2 30 Rainbow (6 Suits) 2020-07-23 — 11:52:01 UTC higamy, Magnissico
255252 2 30 Rainbow (6 Suits) 2020-07-29 — 11:19:13 UTC mirthe, Vincenthart
265853 2 30 Rainbow (6 Suits) 2020-08-09 — 03:03:05 UTC kristylee, methmatics
270460 2 30 Rainbow (6 Suits) 2020-08-14 — 03:21:43 UTC mbluewolverine, Ornamentalist
276315 2 30 Rainbow (6 Suits) 2020-08-21 — 06:06:37 UTC Rauren8992, saxplaya007
280622 2 30 Rainbow (6 Suits) 2020-08-26 — 01:20:16 UTC maryplantthomas, shelft
284370 2 30 Rainbow (6 Suits) 2020-08-30 — 03:41:22 UTC Aharon, eliyahoo
286232 2 30 Rainbow (6 Suits) 2020-09-01 — 05:50:14 UTC mkoa, rpbd
286478 2 30 Rainbow (6 Suits) 2020-09-01 — 20:14:52 UTC johnboy81918, Stephzheng
293157 2 30 Rainbow (6 Suits) 2020-09-09 — 05:29:14 UTC gsherm, tbt
313025 2 30 Rainbow (6 Suits) 2020-10-04 — 22:21:06 UTC etyg, klshen
313099 2 30 Rainbow (6 Suits) 2020-10-05 — 00:15:05 UTC elsring, missporbothe1st
315502 2 30 Rainbow (6 Suits) 2020-10-08 — 02:38:12 UTC deeps, srip
328249 2 30 Rainbow (6 Suits) 2020-10-25 — 22:42:28 UTC coachamera, jasmine
347652 2 30 Rainbow (6 Suits) 2020-11-19 — 05:39:21 UTC mrpoopybutthole, Mrspoopy
364651 2 30 Rainbow (6 Suits) 2020-12-08 — 17:04:36 UTC boba, HelanaAshryvr
365348 2 30 Rainbow (6 Suits) 2020-12-09 — 03:48:06 UTC Laure, Shazaaaaam
398822 2 30 Rainbow (6 Suits) 2021-01-10 — 05:41:39 UTC Cold, Shad_Crow
406618 2 30 Rainbow (6 Suits) 2021-01-17 — 21:25:46 UTC glend, tacobot5000
416468 2 30 Rainbow (6 Suits) 2021-01-27 — 16:42:42 UTC lcflorencelo, slyrk
416536 2 30 Rainbow (6 Suits) 2021-01-27 — 18:32:38 UTC john120283, princeton
419656 2 30 Rainbow (6 Suits) 2021-01-30 — 08:09:49 UTC n21, other
433478 2 30 Rainbow (6 Suits) 2021-02-11 — 19:44:14 UTC danielshaun, elsa96
439109 2 30 Rainbow (6 Suits) 2021-02-16 — 13:33:40 UTC lst, marvolo2
462620 2 30 Rainbow (6 Suits) 2021-03-09 — 19:33:55 UTC Durandal, squirrel1988
464634 2 30 Rainbow (6 Suits) 2021-03-11 — 15:00:35 UTC annita7B, IGNaval
468031 2 30 Rainbow (6 Suits) 2021-03-14 — 16:26:25 UTC MarieBa, Theklaj
470374 2 30 Rainbow (6 Suits) 2021-03-16 — 20:12:05 UTC DaVince, Ritz1974
472723 2 30 Rainbow (6 Suits) 2021-03-18 — 20:57:41 UTC JoostM, Jorrit12345
474787 2 30 Rainbow (6 Suits) 2021-03-20 — 14:09:03 UTC SuperKaczor, wygrywamalbonie
477977 2 30 Rainbow (6 Suits) 2021-03-23 — 14:08:47 UTC explorerus., raphaeleon
478173 2 30 Rainbow (6 Suits) 2021-03-23 — 19:24:29 UTC Finessed, Stavfx
485344 2 30 Rainbow (6 Suits) 2021-03-30 — 11:00:23 UTC BRH2020, Rabbeetroot
495504 2 30 Rainbow (6 Suits) 2021-04-10 — 00:23:13 UTC boobailey808, Mustang949
499375 2 30 Rainbow (6 Suits) 2021-04-13 — 03:15:40 UTC boggle, Scarlet
503831 2 30 Rainbow (6 Suits) 2021-04-17 — 03:44:29 UTC Frozen_Animal, Macs_girl
511214 2 30 Rainbow (6 Suits) 2021-04-24 — 11:00:08 UTC Pete2, Pugsister1
535189 2 30 Rainbow (6 Suits) 2021-05-20 — 01:24:49 UTC jean_franc_bleu, loohye
547475 2 30 Rainbow (6 Suits) 2021-06-02 — 18:11:47 UTC JonathanHicks, sole.garcia
559915 2 30 Rainbow (6 Suits) 2021-06-11 — 22:28:05 UTC ADrone, pianoblook
560134 2 30 Rainbow (6 Suits) 2021-06-12 — 03:38:51 UTC MMage, rainboy
562733 2 30 Rainbow (6 Suits) 2021-06-14 — 17:25:05 UTC aliseo, asdfasdfasdA
565638 2 30 Rainbow (6 Suits) 2021-06-16 — 23:02:28 UTC eoehlsen, tantum1
576654 2 30 Rainbow (6 Suits) 2021-06-28 — 20:51:01 UTC Aroma1997, EsorX
576719 2 30 Rainbow (6 Suits) 2021-06-28 — 23:06:27 UTC MrSheep, tc2020
578682 2 30 Rainbow (6 Suits) 2021-06-30 — 20:00:50 UTC Frozen_Animal_, Macs_girl_
586520 2 30 Rainbow (6 Suits) 2021-07-11 — 04:47:36 UTC dingyue, jc123432
595437 2 30 Rainbow (6 Suits) 2021-07-24 — 21:20:56 UTC randomguy, y..y
618996 2 30 Rainbow (6 Suits) 2021-09-01 — 14:23:11 UTC gsmboy, RodeLeeuw
620880 2 30 Rainbow (6 Suits) 2021-09-04 — 02:55:10 UTC dobi, timotree
625468 2 30 Rainbow (6 Suits) 2021-09-12 — 21:38:13 UTC butterflydem2, Mayabeth9
631390 2 30 Rainbow (6 Suits) 2021-09-23 — 15:04:57 UTC HiIIIHIII, LEAVE
633172 2 30 Rainbow (6 Suits) 2021-09-26 — 19:32:27 UTC Inygo2, Trase83
634703 2 30 Rainbow (6 Suits) 2021-09-29 — 01:21:41 UTC agxy, Hammerdal
640977 2 30 Rainbow (6 Suits) 2021-10-10 — 03:46:22 UTC gurbag, michellezlxy
646262 2 30 Rainbow (6 Suits) 2021-10-20 — 16:27:08 UTC Hihihihjt, kads
9407 2 29 Rainbow (6 Suits) 2018-08-10 — 23:12:14 UTC dchoi44, kalmasi
15825 2 29 Rainbow (6 Suits) 2018-12-28 — 20:35:47 UTC demochi, pepsicola
27801 2 29 Rainbow (6 Suits) 2019-04-05 — 05:35:43 UTC lh, Sh
141745 2 29 Rainbow (6 Suits) 2020-04-28 — 03:26:01 UTC Aluap, antitelharsic
288983 2 29 Rainbow (6 Suits) 2020-09-04 — 16:32:51 UTC lvlotiejus52, motiejus52
310015 2 29 Rainbow (6 Suits) 2020-10-01 — 00:27:29 UTC BlueNovember, Crux
330538 2 29 Rainbow (6 Suits) 2020-10-29 — 18:46:29 UTC JWFugle, lorenzo1
403144 2 29 Rainbow (6 Suits) 2021-01-14 — 17:59:37 UTC dhdrummo, RajivVarma
409828 2 29 Rainbow (6 Suits) 2021-01-20 — 19:46:16 UTC ajsehifowha, dunes1
477566 2 29 Rainbow (6 Suits) 2021-03-23 — 02:27:57 UTC hambrenson, veganpecan
517725 2 29 Rainbow (6 Suits) 2021-05-01 — 14:50:38 UTC itchy, tactical
614591 2 29 Rainbow (6 Suits) 2021-08-25 — 13:40:10 UTC ombrien, Sonea
630033 2 29 Rainbow (6 Suits) 2021-09-20 — 22:39:53 UTC TJTJTJJTTJ, zxczxczxczxczxc
124503 2 28 Rainbow (6 Suits) 2020-04-16 — 21:07:33 UTC asaelr, robense
141307 2 28 Rainbow (6 Suits) 2020-04-27 — 21:29:07 UTC alicia_atsg, robj
152852 2 28 Rainbow (6 Suits) 2020-05-05 — 06:32:55 UTC Crivens, miriamattia
181888 2 28 Rainbow (6 Suits) 2020-05-26 — 01:09:48 UTC cchangame, SEKs
209160 2 28 Rainbow (6 Suits) 2020-06-17 — 02:50:49 UTC anhnguyen, StarHobo7
226936 2 28 Rainbow (6 Suits) 2020-07-02 — 20:32:25 UTC adi1, anusha2
386675 2 28 Rainbow (6 Suits) 2020-12-30 — 00:50:13 UTC Wheatie, wifeofwheatie
434692 2 28 Rainbow (6 Suits) 2021-02-12 — 20:36:25 UTC Junkrat, QP
436044 2 28 Rainbow (6 Suits) 2021-02-13 — 21:55:11 UTC paari, peponenazionale
436171 2 28 Rainbow (6 Suits) 2021-02-14 — 00:29:49 UTC aesophsfables, shocksteel
447209 2 28 Rainbow (6 Suits) 2021-02-24 — 00:10:32 UTC Redbeard124, SmolAngel
524014 2 28 Rainbow (6 Suits) 2021-05-08 — 07:59:57 UTC FizzyLizzy123, Ignasis
43121 2 27 Rainbow (6 Suits) 2019-06-25 — 02:05:56 UTC Emily, J3enjamin
50407 2 27 Rainbow (6 Suits) 2019-08-15 — 02:31:17 UTC dragonskitty, Hrusk
100152 2 27 Rainbow (6 Suits) 2020-03-28 — 20:43:03 UTC jule_2000, Sunny_Hanabi
253698 2 27 Rainbow (6 Suits) 2020-07-28 — 03:58:06 UTC foinil, sushirameno
256244 2 27 Rainbow (6 Suits) 2020-07-30 — 14:52:05 UTC Lee3, RickSanchez
256591 2 27 Rainbow (6 Suits) 2020-07-31 — 01:49:21 UTC Bprrg, sgerstle
263542 2 27 Rainbow (6 Suits) 2020-08-06 — 18:56:13 UTC gwenhywfar, meeree
304324 2 27 Rainbow (6 Suits) 2020-09-23 — 00:30:25 UTC BobbyK, jmcatamney
306516 2 27 Rainbow (6 Suits) 2020-09-26 — 01:36:41 UTC Andydemented, stowne
399359 2 27 Rainbow (6 Suits) 2021-01-10 — 19:18:56 UTC livelikediv, vaibhavram
463877 2 27 Rainbow (6 Suits) 2021-03-10 — 20:56:08 UTC anom, Nico123
464909 2 27 Rainbow (6 Suits) 2021-03-11 — 20:34:55 UTC Alex1992, DoraEs
567757 2 27 Rainbow (6 Suits) 2021-06-19 — 20:57:42 UTC AnastasiaN, RavenGr
399395 2 26 Rainbow (6 Suits) 2021-01-10 — 20:06:22 UTC Etherealz, missyalyssi
484961 2 26 Rainbow (6 Suits) 2021-03-30 — 00:30:04 UTC bearcowtoasterz, Puritifyer
129011 2 25 Rainbow (6 Suits) 2020-04-19 — 16:15:29 UTC bornagy, nandu13
184437 2 22 Rainbow (6 Suits) 2020-05-28 — 03:39:33 UTC mmv, tneerukonda
4204 2 0 Rainbow (6 Suits) 2018-03-19 — 00:22:09 UTC florrat2, NotRaKXeR
5401 2 0 Rainbow (6 Suits) 2018-04-21 — 19:42:22 UTC Libster, Zamiel
7720 2 0 Rainbow (6 Suits) 2018-06-28 — 23:26:15 UTC efemural, jean
36521 2 0 Rainbow (6 Suits) 2019-05-09 — 03:26:47 UTC becksgl, comfyc
55332 2 0 Rainbow (6 Suits) 2019-09-17 — 21:37:08 UTC hbjornoy, heddav
65772 2 0 Rainbow (6 Suits) 2019-11-21 — 02:05:58 UTC DMoney, honzas
68598 2 0 Rainbow (6 Suits) 2019-12-04 — 06:05:21 UTC Artificial, jba7
72533 2 0 Rainbow (6 Suits) 2019-12-24 — 11:46:20 UTC paradoxical, rakion
79004 2 0 Rainbow (6 Suits) 2020-02-11 — 19:05:47 UTC RaKXeR, sankala fan
80262 2 0 Rainbow (6 Suits) 2020-02-16 — 20:19:50 UTC iggy2foots, logiciain
90975 2 0 Rainbow (6 Suits) 2020-03-17 — 22:38:18 UTC kawsn13, Nigr
102089 2 0 Rainbow (6 Suits) 2020-03-30 — 01:12:52 UTC hellococo, math444
108979 2 0 Rainbow (6 Suits) 2020-04-04 — 18:31:28 UTC Joost, Thomas1234
114489 2 0 Rainbow (6 Suits) 2020-04-09 — 19:34:59 UTC mglanzer, rfrank
116193 2 0 Rainbow (6 Suits) 2020-04-10 — 21:53:08 UTC khushi, neerav
118355 2 0 Rainbow (6 Suits) 2020-04-12 — 01:29:07 UTC lrovner, maxnorris13
118383 2 0 Rainbow (6 Suits) 2020-04-12 — 01:44:27 UTC btownshend, raphtown
131697 2 0 Rainbow (6 Suits) 2020-04-21 — 12:14:19 UTC anne.so, tohel71
132625 2 0 Rainbow (6 Suits) 2020-04-22 — 02:01:52 UTC WadeYao, YYF
142916 2 0 Rainbow (6 Suits) 2020-04-29 — 02:19:19 UTC gaocow, paperairplane69
144307 2 0 Rainbow (6 Suits) 2020-04-30 — 02:56:38 UTC jalmenda, zmill415
149757 2 0 Rainbow (6 Suits) 2020-05-03 — 06:21:01 UTC oatmilk, sundried_tomato
151963 2 0 Rainbow (6 Suits) 2020-05-04 — 19:21:31 UTC Allemoor, Kilkame
157939 2 0 Rainbow (6 Suits) 2020-05-09 — 03:07:50 UTC Brownp, dcrawford
159793 2 0 Rainbow (6 Suits) 2020-05-10 — 03:42:29 UTC Bageer, beanstalk
162673 2 0 Rainbow (6 Suits) 2020-05-12 — 03:49:42 UTC clayt, kitcat
173415 2 0 Rainbow (6 Suits) 2020-05-20 — 01:19:56 UTC ichaelm, wojm
201303 2 0 Rainbow (6 Suits) 2020-06-10 — 07:46:35 UTC RespectCaviar, schemetrical
201799 2 0 Rainbow (6 Suits) 2020-06-10 — 21:40:57 UTC pokgai1, seefut
206810 2 0 Rainbow (6 Suits) 2020-06-14 — 23:54:55 UTC Dr_Kakashi, kimbifille
209645 2 0 Rainbow (6 Suits) 2020-06-17 — 18:04:07 UTC arthur.harvey, benoistvitrac
217181 2 0 Rainbow (6 Suits) 2020-06-24 — 13:07:44 UTC Fuuut, Reinier
225643 2 0 Rainbow (6 Suits) 2020-07-01 — 18:03:07 UTC higamel, Maestra
230321 2 0 Rainbow (6 Suits) 2020-07-05 — 19:28:46 UTC Barthe, roosmariej
233975 2 0 Rainbow (6 Suits) 2020-07-09 — 05:21:51 UTC aridante, nostalgiccat
238876 2 0 Rainbow (6 Suits) 2020-07-14 — 03:54:56 UTC julian5, Laura17
244857 2 0 Rainbow (6 Suits) 2020-07-19 — 06:49:35 UTC melodywu, premc
248501 2 0 Rainbow (6 Suits) 2020-07-23 — 04:51:13 UTC ben10, chung
251090 2 0 Rainbow (6 Suits) 2020-07-25 — 22:10:13 UTC 5thAccount, crazy
266217 2 0 Rainbow (6 Suits) 2020-08-09 — 14:20:34 UTC eljobe, VerySloppyTwo
268196 2 0 Rainbow (6 Suits) 2020-08-11 — 19:22:08 UTC bluecow, toddobutorange
284343 2 0 Rainbow (6 Suits) 2020-08-30 — 03:18:24 UTC evieisbad, ijs
284764 2 0 Rainbow (6 Suits) 2020-08-30 — 19:24:53 UTC Dwu123, IsabeltheCat
288739 2 0 Rainbow (6 Suits) 2020-09-04 — 07:09:08 UTC atlas, pbody
290782 2 0 Rainbow (6 Suits) 2020-09-06 — 16:15:26 UTC Bjuuti, Reiman
293846 2 0 Rainbow (6 Suits) 2020-09-10 — 03:36:17 UTC catbutts, erinselene
295616 2 0 Rainbow (6 Suits) 2020-09-12 — 06:15:55 UTC mmsieth, Samantha
299282 2 0 Rainbow (6 Suits) 2020-09-17 — 01:33:17 UTC hu.man01, Stradguy1
299422 2 0 Rainbow (6 Suits) 2020-09-17 — 03:40:01 UTC heftych1, kimgannon
305617 2 0 Rainbow (6 Suits) 2020-09-24 — 22:23:23 UTC gracia5180, harikari.live
320207 2 0 Rainbow (6 Suits) 2020-10-14 — 09:10:37 UTC pescerosso, rea
321453 2 0 Rainbow (6 Suits) 2020-10-16 — 05:33:47 UTC Chad.Cor, chadhealy
338108 2 0 Rainbow (6 Suits) 2020-11-08 — 05:25:44 UTC Dawit, jelzur3
358616 2 0 Rainbow (6 Suits) 2020-12-02 — 01:24:55 UTC mdubz, tossevent
360077 2 0 Rainbow (6 Suits) 2020-12-04 — 00:08:57 UTC Jake_Stiles, rz
367169 2 0 Rainbow (6 Suits) 2020-12-10 — 23:57:38 UTC KitKat13, torp
368755 2 0 Rainbow (6 Suits) 2020-12-12 — 08:56:59 UTC Alchemist75, victorywys
369348 2 0 Rainbow (6 Suits) 2020-12-13 — 00:17:39 UTC LdeAmorin, Matías_V5
371391 2 0 Rainbow (6 Suits) 2020-12-15 — 03:19:11 UTC jarhill0, jarhillO
372178 2 0 Rainbow (6 Suits) 2020-12-15 — 22:00:07 UTC oatty, sunflower
380809 2 0 Rainbow (6 Suits) 2020-12-24 — 09:15:41 UTC dartemis13, foo
391983 2 0 Rainbow (6 Suits) 2021-01-04 — 01:53:52 UTC boodles100, sleibson
397294 2 0 Rainbow (6 Suits) 2021-01-09 — 02:22:35 UTC FrozenAnimal, Macsgirl
398886 2 0 Rainbow (6 Suits) 2021-01-10 — 06:38:10 UTC howlcity, socerman
407277 2 0 Rainbow (6 Suits) 2021-01-18 — 10:18:29 UTC i421, yotamamir
409845 2 0 Rainbow (6 Suits) 2021-01-20 — 20:00:28 UTC Cerys98, corano
410518 2 0 Rainbow (6 Suits) 2021-01-21 — 14:07:37 UTC Plum, TUSEITU
424313 2 0 Rainbow (6 Suits) 2021-02-03 — 19:17:57 UTC Feich59, Kowalski1337
425592 2 0 Rainbow (6 Suits) 2021-02-04 — 19:41:53 UTC infinity00, rubywizard
427953 2 0 Rainbow (6 Suits) 2021-02-06 — 20:29:40 UTC gubs, pink
428713 2 0 Rainbow (6 Suits) 2021-02-07 — 05:45:22 UTC babapest, mestrepoke
435519 2 0 Rainbow (6 Suits) 2021-02-13 — 06:59:50 UTC Lampz, Mage
441692 2 0 Rainbow (6 Suits) 2021-02-19 — 05:07:12 UTC bockers, Meghan1234567
444584 2 0 Rainbow (6 Suits) 2021-02-21 — 20:04:53 UTC mctricozzi, rhcpfan713
445526 2 0 Rainbow (6 Suits) 2021-02-22 — 15:32:51 UTC macanek, need4speed
452097 2 0 Rainbow (6 Suits) 2021-02-28 — 19:00:05 UTC J.Ole, RayW
473644 2 0 Rainbow (6 Suits) 2021-03-19 — 16:51:59 UTC Footscrayzy, Noble
489751 2 0 Rainbow (6 Suits) 2021-04-03 — 22:43:37 UTC BasH, Blaster---
501896 2 0 Rainbow (6 Suits) 2021-04-15 — 16:39:55 UTC ATrueZen, dj.narayanan
571879 2 0 Rainbow (6 Suits) 2021-06-24 — 09:27:58 UTC Polymath, sen88
576041 2 0 Rainbow (6 Suits) 2021-06-28 — 01:26:53 UTC Offset, SpinTop
603676 2 0 Rainbow (6 Suits) 2021-08-07 — 12:22:31 UTC Lel0uch, melwen
610784 2 0 Rainbow (6 Suits) 2021-08-19 — 21:27:33 UTC Charles123123, wardsux1
612157 2 0 Rainbow (6 Suits) 2021-08-21 — 10:05:36 UTC HanabOfficial, lamington
613057 2 0 Rainbow (6 Suits) 2021-08-23 — 04:17:22 UTC nohk, Sam_Pahk
618925 2 0 Rainbow (6 Suits) 2021-09-01 — 08:18:01 UTC AJNOLAN95, DaVeryGoodWaaan
619126 2 0 Rainbow (6 Suits) 2021-09-01 — 19:05:15 UTC asdasdasda, JTJTJTJTJT
633868 2 0 Rainbow (6 Suits) 2021-09-27 — 19:40:44 UTC potato_laptop, wardsux2
645852 2 0 Rainbow (6 Suits) 2021-10-19 — 21:18:45 UTC asfchg, whatheswitchgme
647515 2 0 Rainbow (6 Suits) 2021-10-22 — 18:17:52 UTC sadasdasdasdas, xzgsd